Location: Larkspur
(54.4391°N, 113.7691°W)
Time: 00:11:12
(UTC+00:00)

CZ-4C DEB - Pass Details

Date: 29 May 2024
Orbit: 605 x 614 km, 97.8° (Epoch: 21 June)

Event Time Altitude Azimuth Distance (km) Brightness Sun altitude
Exits shadow 06:19:32 10° 205° (SSW) 2,001 ? -12.3°
Reaches altitude 10° 06:19:36 10° 206° (SSW) 1,977 ? -12.3°
Maximum altitude 06:23:20 28° 266° (W) 1,155 ? -12.4°
Drops below altitude 10° 06:27:06 10° 326° (NNW) 1,988 ? -12.6°
Sets 06:29:33 0° 338° (NNW) 2,897 ? -12.7°
